Location: Çiftea??l Tepesi
(39.0106°N, 32.1431°E)
Time: 11:20:29
(UTC+00:00)

Daily predictions for brighter satellites

Satellite Brightness Start Highest point End
(mag) Time Altitude Azimuth Time Altitude Azimuth Time Altitude Azimuth
USA 229 DEB 4.4 16:40:21 10° SW 16:46:05 54° NW 16:52:30 10° NNE
USA 229 4.4 16:40:24 10° SW 16:46:08 54° NW 16:52:34 10° NNE
CZ-2D R/B 3.7 16:45:30 10° S 16:49:34 72° WSW 16:53:35 10° NNW
NOSS 2-2 (D) 3.8 16:45:36 10° NNW 16:49:40 72° ENE 16:55:21 10° SE
Okean 1-7 3.4 16:49:00 10° N 16:52:53 39° ENE 16:56:44 10° SSE
Cosmos 2278 4.2 16:49:14 10° SSW 16:54:51 69° WNW 17:00:31 10° NNE
Spot 4 Rocket 4.3 16:50:11 10° S 16:55:16 76° WSW 17:00:23 10° NNW
Cosmos 1328 3.8 16:52:14 10° N 16:55:39 46° E 16:59:01 10° SSE
Aureole 1 Rocket 2.2 16:53:16 10° SSW 16:56:51 77° ESE 16:59:57 10° NNE
Cosmos 1862 Rocket 3.8 16:53:29 10° N 16:57:48 51° E 17:02:04 10° SSE
Cosmos 1707 Rocket 3.8 16:54:15 10° N 16:58:25 47° E 17:02:32 10° SSE
Cosmos 2360 Rocket 2.2 16:54:01 10° SSW 16:59:37 82° ESE 17:05:17 10° NNE
Cosmos 1844 Rocket 2.7 16:55:30 10° NNW 17:01:06 89° WSW 17:06:39 10° SSE
Cosmos 1441 Rocket 3.5 17:00:16 10° N 17:03:24 35° ENE 17:06:30 10° SE
Cosmos 2184 Rocket 4.2 16:58:10 10° SSE 17:04:20 55° E 17:10:32 10° NNE
SL-19 R/B 4.2 17:01:54 10° SSE 17:07:05 86° WSW 17:12:26 10° NNW
Cosmos 2322 Rocket 2.4 17:01:54 10° SSW 17:07:30 78° WNW 17:13:08 10° NNE
Cosmos 2228 Rocket 3.5 17:03:36 10° N 17:07:53 43° ENE 17:12:05 10° SSE
Helios 1A Rocket 3.2 17:05:49 10° NE 17:08:37 27° E 17:11:23 10° SSE
BREEZE-M DEB (TANK) 3.4 17:07:33 10° NW 17:09:45 41° NNE 17:15:16 12° E
Cosmos 1666 Rocket 3.6 17:10:27 10° S 17:14:43 83° W 17:19:02 10° N
SL-16 R/B 3.9 17:10:19 10° SW 17:15:31 37° WNW 17:20:47 10° N
Cosmos 1633 Rocket 3.0 17:11:29 10° S 17:15:51 82° E 17:20:14 10° N
BlueWalker 3 1.9 17:12:51 10° NW 17:16:26 73° SW 17:19:29 14° SE
Aureole 2 4.4 17:13:36 10° NNW 17:17:04 63° ENE 17:20:17 11° SSE
Cosmos 1340 Rocket 3.1 17:15:15 10° SSW 17:18:52 64° W 17:22:31 10° N
CSL-04 Debris 4.4 17:13:59 10° SE 17:19:05 47° ENE 17:24:12 10° N
Meteor 1-22 Rocket 4.4 17:13:51 10° SSW 17:19:23 77° W 17:25:12 10° N
Terra 3.2 17:17:03 14° ESE 17:19:33 21° ENE 17:23:03 10° NNE
Atlas Centaur 2 3.7 17:15:08 10° WSW 17:19:54 27° SSW 17:25:12 11° SE
Cosmos 1898 Rocket 3.4 17:17:03 10° SSW 17:22:18 81° ESE 17:27:32 10° NNE
Resurs 01 Rocket 3.3 17:23:27 10° SSW 17:27:26 34° W 17:31:27 10° NNW
CZ-4 R/B 1.7 17:25:09 15° SE 17:27:56 41° ENE 17:31:30 10° N
Okean O Rocket 3.5 17:29:29 13° ENE 17:30:10 13° ENE 17:32:08 10° NE
CENTAUR R/B 4.0 17:23:45 10° NW 17:32:17 59° WSW 17:41:35 10° SSE
SL-08 R/B 4.2 17:29:24 10° NE 17:33:35 28° E 17:36:20 17° SE
Meteor 1-24 Rocket 3.7 17:29:05 10° N 17:34:35 87° E 17:40:15 10° S
Cosmos 2074 Rocket 4.1 17:29:55 10° S 17:36:07 80° W 17:42:24 10° N
Cosmos 2219 Rocket 2.2 17:30:34 10° SSW 17:36:08 82° WNW 17:41:45 10° NNE
Cosmos 1538 Rocket 3.9 17:31:36 10° NNW 17:36:47 83° ENE 17:41:35 12° SSE
CZ-3C R/B 3.8 17:34:06 10° WSW 17:37:49 12° SW 17:40:09 10° SSW
SPOT 5 2.8 17:34:18 10° SSE 17:39:10 89° E 17:43:48 10° NNW
Cosmos 1937 Rocket 3.5 17:38:40 10° SSW 17:43:57 88° WNW 17:49:16 10° NNE
Tiangong -1.0 17:41:37 10° W 17:44:28 32° SSW 17:45:27 26° S
CZ-4B R/B 3.5 17:43:01 17° SSE 17:45:40 90° E 17:49:19 10° NNW
Cosmos 1339 Rocket 4.5 17:42:04 10° N 17:48:19 62° E 17:53:19 16° SSE
Meteor 1-31 Rocket 2.5 17:46:52 19° S 17:49:18 84° WSW 17:52:50 10° NNW
COSMOS 2428 3.0 17:47:49 10° S 17:53:10 42° ESE 17:58:31 10° NE
IRAS Rocket 4.4 17:48:47 10° S 17:54:18 75° WSW 17:59:49 10° NNW
PAYLOAD B 4.2 17:51:41 21° SSE 17:55:21 65° ENE 18:00:48 10° N
CZ-4B R/B 3.4 17:53:16 26° SE 17:56:11 53° ENE 18:01:37 10° N
Cosmos 923 Rocket 4.2 17:51:10 10° N 17:56:22 53° ENE 17:58:34 32° SE
CZ-4B DEB 4.1 17:52:39 18° SSE 17:56:47 77° ENE 18:02:16 10° N
MetOp-B 4.3 17:54:19 27° SE 17:57:06 54° ENE 18:02:19 10° N
CSL-04 Rocket 4.0 17:51:53 10° S 17:57:22 70° WSW 18:02:54 10° NNW
Cosmos 2366 rocket 4.4 17:55:28 25° SE 17:58:28 40° E 18:04:07 10° NNE
Cosmos 2327 Rocket 4.4 17:55:43 10° S 18:01:45 65° E 18:07:54 10° NNE
NOSS 3-2 (C) 4.4 17:57:02 10° NNW 18:04:25 55° NE 18:08:57 29° ESE
Cosmos 2278 Rocket 3.7 18:00:59 10° N 18:04:57 19° NE 18:05:59 18° ENE
SKYMED 3 4.1 18:08:57 10° NNE 18:12:50 87° E 18:14:26 34° S
NOSS 3-2 (A) 4.4 18:05:12 10° NW 18:12:55 71° WSW 18:19:22 21° SSE
Spot 2 Rocket 3.9 18:13:51 39° E 18:14:25 40° ENE 18:19:07 10° N
Cosmos 1703 Rocket 3.8 18:15:30 10° NNW 18:19:47 63° W 18:21:38 32° SSW
ERS-1 Rocket 2.9 18:17:55 33° S 18:20:13 82° WSW 18:25:14 10° NNW
Cosmos 2218 Rocket 3.9 18:21:24 37° SSE 18:23:41 59° E 18:29:41 10° NNE
Lacrosse 5 rocket 2.9 18:21:56 10° W 18:24:40 25° NW 18:27:17 11° NNE
Cosmos 1933 Rocket 4.0 18:21:41 14° SSW 18:25:21 60° W 18:29:42 10° N
Meteor 2-15 4.4 18:27:13 47° SE 18:28:32 56° E 18:34:28 10° NNE
Cosmos 1943 Rocket 2.9 18:26:01 10° N 18:31:12 35° ENE 18:31:28 35° ENE
MOS 1-B 4.4 18:31:08 52° ESE 18:32:12 61° ENE 18:37:53 10° N
Cosmos 1959 Rocket 4.4 18:31:23 41° SSE 18:33:39 68° E 18:39:57 10° NNE
In-Cosmos 22 Rocket 3.9 18:31:04 10° N 18:36:26 83° E 18:37:17 64° SSE
YAOGAN 11 4.0 18:32:49 10° NNE 18:36:42 74° NNE 18:36:42 74° NNE
Cosmos 1821 Rocket 4.0 18:37:50 54° ESE 18:38:16 55° E 18:44:23 10° NNE
Okean-O 2.9 18:43:16 59° NNE 18:43:16 59° NNE 18:46:56 10° N
Cosmos 494 Rocket 3.8 18:41:14 10° NNW 18:46:26 85° ENE 18:46:33 84° ESE
ADEOS 4.3 18:52:04 36° SW 18:53:41 47° W 18:58:43 10° NNW
Terra 3.0 18:55:40 32° SW 18:56:48 37° W 19:01:10 10° NNW
Meteor 2-21 4.4 18:52:47 10° N 18:58:41 64° ENE 18:58:41 64° ENE
CZ-4 R/B 4.1 19:00:33 10° WSW 19:02:07 12° W 19:03:40 10° WNW
Cosmos 2237 Rocket 3.2 19:05:50 36° NE 19:05:50 36° NE 19:09:08 10° NNE
Cosmos 1980 4.4 19:06:16 42° NE 19:06:16 42° NE 19:09:57 10° NNE
Okean O Rocket 2.5 19:06:43 47° NW 19:06:43 47° NW 19:10:09 10° NNW
ASTEX 1 4.1 19:11:29 47° N 19:11:29 47° N 19:14:58 10° N
SPOT 3 Rocket 4.2 19:21:38 50° N 19:21:38 50° N 19:25:28 10° NNW
Cosmos 2369 Rocket 4.4 19:37:17 10° NNE 19:39:12 14° NE 19:39:12 14° NE
Ariane Rocket 4.4 19:46:48 35° NNW 19:46:48 35° NNW 19:49:41 10° NNW
Cosmos 1727 Rocket 4.3 19:38:25 10° N 19:43:49 63° NW 19:43:49 63° NW
USA 238 DEB 4.1 19:37:36 10° NNW 19:44:50 68° NE 19:44:50 68° NE
USA 238 4.1 19:37:47 10° NNW 19:45:00 67° NE 19:45:00 67° NE
Cosmos 2278 Rocket 3.2 19:43:53 10° NNW 19:47:49 44° NW 19:47:49 44° NW
Cosmos 1943 Rocket 4.0 20:09:53 10° NW 20:12:59 25° WNW 20:12:59 25° WNW
Cosmos 2237 Rocket 4.5 20:47:31 18° WNW 20:48:03 18° NW 20:51:56 10° N
ACS3 Solar Sail 4.1 21:55:42 10° NE 21:56:52 14° NE 21:56:52 14° NE
USA 281 4.5 22:41:15 35° NNE 22:41:15 35° NNE 22:45:59 10° N
Cosmos 1697 Rocket 4.4 23:21:48 10° N 23:24:53 29° NNE 23:24:53 29° NNE
Cosmos 1980 Rocket 4.1 23:37:52 10° N 23:42:34 26° ENE 23:45:53 16° ESE
ACS3 Solar Sail 3.0 23:36:58 10° N 23:40:25 35° NNW 23:40:25 35° NNW
